W0KHZ Weather Reports


time (UTC)temp
C
wind
direction
speed
KPH
gust
KPH
rain 1hr
cm
rain 24hr
cm
rain mn
cm
humidity
%
barometer
mb
20260831032526 22 133 1.6 4.8 0.00 0.00 0.00 86 1040.0
20260831032023 22 132 0.0 3.2 0.00 0.00 0.00 86 1039.9
20260831031520 22 162 0.0 3.2 0.00 0.00 0.00 87 1039.9
20260831031017 22 162 0.0 4.8 0.00 0.00 0.00 87 1039.9
20260831030534 22 162 0.0 4.8 0.00 0.00 0.00 87 1040.0
20260831030031 22 0.0 0.0 0.00 0.00 0.00 88 1040.0
20260831025527 21 0.0 0.0 0.00 0.00 0.00 88 1040.2
20260831025025 21 0.0 0.0 0.00 0.00 0.00 88 1040.1
20260831024523 21 0.0 0.0 0.00 0.00 0.00 88 1040.2
20260831024020 21 163 0.0 1.6 0.00 0.00 0.00 88 1040.2
20260831023557 21 0.0 0.0 0.00 0.00 0.00 88 1040.2
20260831023054 21 0.0 0.0 0.00 0.00 0.00 88 1040.4
20260831022530 21 163 0.0 1.6 0.00 0.00 0.00 88 1040.4
20260831022026 21 163 0.0 4.8 0.00 0.00 0.00 88 1040.4
20260831021524 21 0.0 0.0 0.00 0.00 0.00 88 1040.4
20260831021021 21 163 0.0 4.8 0.00 0.00 0.00 87 1040.3
20260831020518 22 163 0.0 3.2 0.00 0.00 0.00 87 1040.3
20260831020035 22 163 0.0 3.2 0.00 0.00 0.00 87 1040.4
20260831015531 22 163 0.0 1.6 0.00 0.00 0.00 86 1040.4
20260831015027 22 0.0 0.0 0.00 0.00 0.00 86 1040.4
20260831014524 22 0.0 0.0 0.00 0.00 0.00 86 1040.3
20260831014042 22 142 0.0 1.6 0.00 0.00 0.00 85 1040.3
20260831013519 22 0.0 0.0 0.00 0.00 0.00 85 1040.4
20260831013017 22 0.0 0.0 0.00 0.00 0.00 85 1040.2
20260831012634 22 0.0 0.0 0.00 0.00 0.00 84 1040.1
20260831012051 22 0.0 0.0 0.00 0.00 0.00 84 1040.0
20260831011527 23 0.0 0.0 0.00 0.00 0.00 84 1039.9
20260831011045 23 0.0 0.0 0.00 0.00 0.00 84 1040.0
20260831010543 23 0.0 0.0 0.00 0.00 0.00 84 1040.0
20260831010020 23 0.0 0.0 0.00 0.00 0.00 84 1039.9
20260831005518 23 0.0 0.0 0.00 0.00 0.00 84 1039.8
20260831005055 23 0.0 0.0 0.00 0.00 0.00 84 1039.9
20260831004532 23 0.0 0.0 0.00 0.00 0.00 84 1039.9
20260831004028 23 0.0 0.0 0.00 0.00 0.00 84 1039.8
20260831003606 23 0.0 0.0 0.00 0.00 0.00 84 1039.7
20260831003023 23 0.0 0.0 0.00 0.00 0.00 84 1039.8
20260831002521 23 142 0.0 1.6 0.00 0.00 0.00 84 1039.7
20260831002018 23 0.0 0.0 0.00 0.00 0.00 84 1039.7
20260831001515 23 0.0 0.0 0.00 0.00 0.00 84 1039.7
20260831001032 23 0.0 0.0 0.00 0.00 0.00 84 1039.5
20260831000527 23 0.0 0.0 0.00 0.00 0.00 83 1039.4
20260831000025 24 0.0 0.0 0.00 0.00 0.00 83 1039.4
20260830235522 24 0.0 0.0 0.00 0.00 0.00 83 1039.3
20260830235020 24 0.0 0.0 0.00 0.00 0.00 83 1039.2
20260830234537 24 0.0 0.0 0.00 0.00 0.00 83 1038.9
20260830234034 24 0.0 0.0 0.00 0.00 0.00 82 1038.8
20260830233551 24 0.0 0.0 0.00 0.00 0.00 81 1038.7
20260830233027 25 142 0.0 1.6 0.00 0.00 0.00 81 1038.9
20260830232524 25 142 0.0 1.6 0.00 0.00 0.00 81 1038.9
20260830232021 25 140 0.0 1.6 0.00 0.00 0.00 80 1039.0
20260830231518 25 137 0.0 1.6 0.00 0.00 0.00 80 1039.0
20260830231015 25 137 0.0 1.6 0.00 0.00 0.00 79 1039.0
20260830230553 25 0.0 0.0 0.00 0.00 0.00 79 1038.9
20260830230049 26 137 0.0 1.6 0.00 0.00 0.00 79 1038.9
20260830225525 26 137 0.0 4.8 0.00 0.00 0.00 78 1038.8
20260830225022 26 137 1.6 3.2 0.00 0.00 0.00 78 1039.0
20260830224519 26 137 0.0 1.6 0.00 0.00 0.00 77 1039.0
20260830224017 26 0.0 0.0 0.00 0.00 0.00 77 1038.9
20260830223534 26 136 0.0 3.2 0.00 0.00 0.00 76 1038.7
20260830223031 26 127 3.2 6.4 0.00 0.00 0.00 77 1038.7
20260830222526 26 163 1.6 4.8 0.00 0.00 0.00 77 1038.8
20260830222023 26 130 1.6 3.2 0.00 0.00 0.00 77 1038.8
20260830221540 26 130 0.0 1.6 0.00 0.00 0.00 77 1038.9
20260830221017 26 130 1.6 3.2 0.00 0.00 0.00 76 1038.9
20260830220535 26 124 1.6 4.8 0.00 0.00 0.00 76 1038.9
20260830220032 27 113 1.6 3.2 0.00 0.00 0.00 76 1038.9
20260830215528 27 99 1.6 4.8 0.00 0.00 0.00 77 1038.7
20260830215025 27 67 0.0 1.6 0.00 0.00 0.00 76 1038.5
20260830214522 27 0.0 0.0 0.00 0.00 0.00 75 1038.5
20260830214020 27 0.0 0.0 0.00 0.00 0.00 74 1038.6
20260830213517 27 66 0.0 3.2 0.00 0.00 0.00 73 1038.5
20260830213034 27 101 1.6 3.2 0.00 0.00 0.00 73 1038.4
20260830212530 28 114 1.6 3.2 0.00 0.00 0.00 73 1038.4
20260830212047 28 124 1.6 4.8 0.00 0.00 0.00 73 1038.3
20260830211524 28 132 3.2 4.8 0.00 0.00 0.00 73 1038.3
20260830211021 28 155 3.2 9.7 0.00 0.00 0.00 73 1038.4
20260830210518 27 156 3.2 6.4 0.00 0.00 0.00 74 1038.4
20260830210035 27 153 1.6 3.2 0.00 0.00 0.00 75 1038.4
20260830205532 27 136 1.6 3.2 0.00 0.00 0.00 75 1038.6
20260830205027 27 119 0.0 3.2 0.00 0.00 0.00 75 1038.6
20260830204524 27 133 1.6 6.4 0.00 0.00 0.00 75 1038.8
20260830204021 27 185 0.0 3.2 0.00 0.00 0.00 75 1038.8
20260830203518 27 186 0.0 3.2 0.00 0.00 0.00 74 1038.7
20260830203015 27 186 0.0 1.6 0.00 0.00 0.00 75 1038.6
20260830202532 27 0.0 0.0 0.00 0.00 0.00 75 1038.7
20260830202028 27 186 0.0 3.2 0.00 0.00 0.00 74 1038.7
20260830201526 27 186 0.0 3.2 0.00 0.00 0.00 73 1038.8
20260830201023 27 0.0 0.0 0.00 0.00 0.00 73 1038.9
20260830200539 27 186 0.0 4.8 0.00 0.00 0.00 74 1039.1
20260830200016 27 164 3.2 4.8 0.00 0.00 0.00 75 1039.2
20260830195534 27 196 0.0 3.2 0.00 0.00 0.00 75 1039.1
20260830195050 27 196 0.0 3.2 0.00 0.00 0.00 75 1039.2
20260830194527 27 202 1.6 3.2 0.00 0.00 0.00 74 1039.3
20260830194024 27 203 0.0 1.6 0.00 0.00 0.00 74 1039.2
20260830193541 27 203 0.0 4.8 0.00 0.00 0.00 75 1039.2
20260830193018 27 131 1.6 4.8 0.00 0.00 0.00 75 1039.3
20260830192535 27 122 0.0 3.2 0.00 0.00 0.00 75 1039.3
20260830192053 27 165 1.6 4.8 0.00 0.00 0.00 75 1039.0
20260830191529 27 157 1.6 4.8 0.00 0.00 0.00 75 1039.1
20260830191026 27 136 0.0 1.6 0.00 0.00 0.00 75 1039.1
20260830190523 27 149 1.6 6.4 0.00 0.00 0.00 75 1039.0
20260830190020 27 169 1.6 4.8 0.00 0.00 0.00 76 1038.9
20260830185517 27 150 1.6 9.7 0.00 0.00 0.00 76 1038.9
20260830185034 27 142 1.6 4.8 0.00 0.00 0.00 76 1038.8
20260830184531 27 142 1.6 6.4 0.00 0.00 0.00 76 1039.0
20260830184027 27 142 1.6 4.8 0.00 0.00 0.00 76 1038.9
20260830183524 26 142 0.0 4.8 0.00 0.00 0.00 77 1038.9
20260830183041 26 142 0.0 3.2 0.00 0.00 0.00 77 1039.0
20260830182518 26 142 0.0 3.2 0.00 0.00 0.00 77 1039.1
20260830182016 26 142 1.6 4.8 0.00 0.00 0.00 77 1039.1
20260830181533 26 142 0.0 3.2 0.00 0.00 0.00 78 1039.3
20260830181048 26 135 1.6 4.8 0.00 0.00 0.00 79 1039.2
20260830180525 26 0.0 0.0 0.00 0.00 0.00 79 1039.2
20260830180022 26 0.0 0.0 0.00 0.00 0.00 80 1039.1
20260830175519 25 0.0 0.0 0.00 0.00 0.00 80 1039.1
20260830175016 25 0.0 0.0 0.00 0.00 0.00 80 1039.2
20260830174534 25 0.0 0.0 0.00 0.00 0.00 80 1039.1
20260830174030 25 0.0 0.0 0.00 0.00 0.00 80 1039.3
20260830173527 25 0.0 0.0 0.00 0.00 0.00 79 1039.3
20260830173024 25 0.0 0.0 0.00 0.00 0.00 79 1039.4
20260830172521 25 0.0 0.0 0.00 0.00 0.00 79 1039.8
20260830172018 26 100 0.0 1.6 0.00 0.00 0.00 79 1040.0
20260830171535 26 100 0.0 1.6 0.00 0.00 0.00 79 1040.3
20260830171033 26 100 0.0 4.8 0.00 0.00 0.00 79 1040.3
20260830170547 26 0.0 0.0 0.00 0.00 0.00 79 1040.3
20260830170045 26 0.0 0.0 0.00 0.00 0.00 79 1040.3
20260830165522 26 0.0 0.0 0.00 0.00 0.00 79 1040.2
20260830165019 26 0.0 0.0 0.00 0.03 0.00 79 1040.3
20260830164516 26 0.0 0.0 0.00 0.05 0.00 79 1039.9
20260830164034 26 0.0 0.0 0.00 0.08 0.00 79 1039.7
20260830163530 26 0.0 0.0 0.00 0.10 0.00 78 1039.6
20260830163046 26 0.0 0.0 0.00 0.18 0.00 77 1039.2
20260830162523 26 0.0 0.0 0.00 0.18 0.00 78 1038.9
20260830162021 26 0.0 0.0 0.00 0.18 0.00 77 1038.7
20260830161537 26 0.0 0.0 0.00 0.18 0.00 78 1038.8
20260830161035 26 0.0 0.0 0.00 0.18 0.00 78 1038.9
20260830160552 26 0.0 0.0 0.00 0.18 0.00 79 1038.8
20260830160028 26 0.0 0.0 0.00 0.18 0.00 80 1038.7
20260830155525 26 0.0 0.0 0.00 0.18 0.00 80 1038.7
20260830155022 26 0.0 0.0 0.00 0.18 0.00 80 1038.5
20260830154519 26 0.0 0.0 0.00 0.18 0.00 80 1038.6
20260830154017 25 0.0 0.0 0.00 0.18 0.00 80 1038.4
20260830153555 25 0.0 0.0 0.00 0.18 0.00 80 1038.4
20260830153031 25 0.0 0.0 0.00 0.18 0.00 80 1038.5
20260830152527 25 0.0 0.0 0.00 0.18 0.00 80 1038.6
20260830152024 25 0.0 0.0 0.00 0.18 0.00 80 1038.6
20260830151522 25 0.0 0.0 0.00 0.18 0.00 81 1038.6
20260830151018 25 0.0 0.0 0.00 0.18 0.00 82 1038.6
20260830150516 25 0.0 0.0 0.00 0.18 0.00 83 1038.7
20260830150033 25 0.0 0.0 0.00 0.18 0.00 83 1038.7
20260830145529 25 0.0 0.0 0.00 0.18 0.00 84 1038.6
20260830145027 24 0.0 0.0 0.00 0.18 0.00 85 1038.3
20260830144523 23 0.0 0.0 0.00 0.18 0.00 85 1038.3
20260830144020 23 0.0 0.0 0.00 0.18 0.00 86 1038.3
20260830143517 23 0.0 0.0 0.00 0.18 0.00 87 1038.3
20260830143055 23 0.0 0.0 0.00 0.18 0.00 88 1038.3
20260830142552 23 0.0 0.0 0.00 0.18 0.00 89 1038.3
20260830142027 22 0.0 0.0 0.00 0.18 0.00 90 1038.4
20260830141524 22 0.0 0.0 0.00 0.18 0.00 90 1038.4
20260830141021 22 0.0 0.0 0.00 0.18 0.00 91 1038.4
20260830140518 22 0.0 0.0 0.00 0.18 0.00 91 1038.4
20260830140035 21 0.0 0.0 0.00 0.18 0.00 92 1038.4
20260830135532 21 0.0 0.0 0.00 0.18 0.00 92 1038.6
20260830135027 21 0.0 0.0 0.00 0.18 0.00 92 1038.5
20260830134524 21 0.0 0.0 0.00 0.18 0.00 92 1038.5
20260830134022 20 0.0 0.0 0.00 0.18 0.00 92 1038.5
20260830133518 20 0.0 0.0 0.00 0.18 0.00 92 1038.5
20260830133015 20 0.0 0.0 0.00 0.18 0.00 92 1038.6
20260830132533 20 0.0 0.0 0.00 0.20 0.00 92 1038.7
20260830132028 19 0.0 0.0 0.00 0.23 0.00 92 1038.7
20260830131526 19 0.0 0.0 0.00 0.23 0.00 92 1038.7
20260830131022 19 0.0 0.0 0.00 0.25 0.00 92 1038.6
20260830130540 19 0.0 0.0 0.00 0.28 0.00 92 1038.4
20260830130016 18 0.0 0.0 0.00 0.28 0.00 92 1038.5
20260830125534 18 0.0 0.0 0.00 0.28 0.00 92 1038.7
20260830125031 18 0.0 0.0 0.00 0.30 0.00 92 1038.6
20260830124606 18 0.0 0.0 0.00 0.33 0.00 92 1038.6
20260830124024 18 0.0 0.0 0.00 0.33 0.00 91 1038.4
20260830123521 18 0.0 0.0 0.00 0.33 0.00 91 1038.4
20260830123018 18 0.0 0.0 0.00 0.36 0.00 91 1038.5
20260830122515 18 0.0 0.0 0.00 0.36 0.00 91 1038.5
20260830122033 18 0.0 0.0 0.00 0.38 0.00 91 1038.5
20260830121529 18 0.0 0.0 0.00 0.41 0.00 91 1038.5
20260830121025 18 0.0 0.0 0.00 0.43 0.00 91 1038.5
20260830120522 18 0.0 0.0 0.00 0.43 0.00 91 1038.5
20260830120020 18 0.0 0.0 0.00 0.46 0.00 91 1038.7
20260830115517 18 0.0 0.0 0.00 0.48 0.00 91 1038.9
20260830115034 18 0.0 0.0 0.00 0.48 0.00 91 1038.7
20260830114531 18 0.0 0.0 0.00 0.48 0.00 91 1038.6
20260830114027 18 0.0 0.0 0.00 0.51 0.00 91 1038.4
20260830113524 18 0.0 0.0 0.00 0.64 0.00 91 1038.4
20260830113021 18 0.0 0.0 0.00 0.64 0.00 91 1038.2
20260830112518 18 0.0 0.0 0.00 0.64 0.00 91 1038.5
20260830112035 18 0.0 0.0 0.00 0.64 0.00 91 1038.7
20260830111552 18 0.0 0.0 0.00 0.64 0.00 91 1038.8
20260830111028 18 0.0 0.0 0.00 0.64 0.00 91 1038.7
20260830110525 18 0.0 0.0 0.00 0.64 0.00 91 1038.8
20260830110022 18 0.0 0.0 0.00 0.64 0.00 91 1038.5
20260830105519 18 0.0 0.0 0.00 0.66 0.00 91 1038.6
20260830105016 18 0.0 0.0 0.00 0.66 0.00 91 1038.6
20260830104534 18 0.0 0.0 0.00 0.66 0.00 91 1038.6
20260830104031 18 0.0 0.0 0.00 0.66 0.00 91 1038.7
20260830103527 18 0.0 0.0 0.00 0.69 0.00 91 1038.7
20260830103045 18 0.0 0.0 0.00 0.69 0.00 91 1038.6
20260830102522 18 0.0 0.0 0.00 0.69 0.00 90 1038.6
20260830102019 18 0.0 0.0 0.00 0.69 0.00 90 1038.6
20260830101516 18 0.0 0.0 0.00 0.69 0.00 90 1038.6
20260830101053 18 0.0 0.0 0.00 0.69 0.00 90 1038.8
20260830100529 18 0.0 0.0 0.00 0.69 0.00 90 1038.8
20260830100026 18 0.0 0.0 0.00 0.69 0.00 90 1038.7
20260830095523 18 0.0 0.0 0.00 0.69 0.00 90 1038.7
20260830095021 18 0.0 0.0 0.00 0.69 0.00 90 1038.8
20260830094518 18 0.0 0.0 0.00 0.69 0.00 90 1038.8
20260830094015 18 0.0 0.0 0.00 0.69 0.00 90 1038.7
20260830093532 19 0.0 0.0 0.00 0.69 0.00 90 1038.7
20260830093028 19 0.0 0.0 0.00 0.69 0.00 90 1038.8
20260830092546 19 0.0 0.0 0.00 0.69 0.00 90 1038.9
20260830092022 19 0.0 0.0 0.00 0.69 0.00 90 1038.8
20260830091520 19 0.0 0.0 0.00 0.69 0.00 90 1038.9
20260830091018 19 0.0 0.0 0.00 0.69 0.00 90 1038.9
20260830090535 19 0.0 0.0 0.00 0.69 0.00 90 1038.9
20260830090032 19 0.0 0.0 0.00 0.69 0.00 90 1039.0
20260830085527 19 0.0 0.0 0.00 0.69 0.00 90 1038.9
20260830085025 19 0.0 0.0 0.00 0.69 0.00 90 1038.9
20260830084522 19 0.0 0.0 0.00 0.69 0.00 90 1039.0
20260830084019 19 0.0 0.0 0.00 0.69 0.00 90 1039.0
20260830083516 19 0.0 0.0 0.00 0.69 0.00 90 1039.1
20260830083034 19 0.0 0.0 0.00 0.69 0.00 90 1039.1
20260830082551 19 0.0 0.0 0.00 0.69 0.00 90 1039.1
20260830082026 19 0.0 0.0 0.00 0.69 0.00 90 1039.2
20260830081523 19 0.0 0.0 0.00 0.69 0.00 90 1039.1
20260830081020 19 0.0 0.0 0.00 0.69 0.00 90 1039.2
20260830080517 19 0.0 0.0 0.00 0.69 0.00 89 1039.1
20260830080035 19 0.0 0.0 0.00 0.69 0.00 89 1039.2
20260830075532 19 0.0 0.0 0.00 0.69 0.00 89 1039.3
20260830075028 19 0.0 0.0 0.00 0.69 0.00 89 1039.3
20260830074525 19 0.0 0.0 0.00 0.69 0.00 89 1039.3
20260830074023 19 0.0 0.0 0.00 0.69 0.00 89 1039.3
20260830073519 19 0.0 0.0 0.00 0.69 0.00 89 1039.3
20260830073037 19 0.0 0.0 0.00 0.69 0.00 89 1039.4
20260830072534 19 0.0 0.0 0.00 0.69 0.00 89 1039.4
20260830072052 19 0.0 0.0 0.00 0.69 0.00 89 1039.4
20260830071528 19 0.0 0.0 0.00 0.69 0.00 89 1039.6
20260830071044 19 0.0 0.0 0.00 0.69 0.00 89 1039.5
20260830070542 19 0.0 0.0 0.00 0.69 0.00 89 1039.6
20260830070019 19 0.0 0.0 0.00 0.69 0.00 89 1039.6
20260830065536 19 0.0 0.0 0.00 0.69 0.00 89 1039.6
20260830065034 19 0.0 0.0 0.00 0.69 0.00 88 1039.6
20260830064530 20 0.0 0.0 0.00 0.69 0.00 88 1039.7
20260830064026 20 0.0 0.0 0.00 0.69 0.00 88 1039.7
20260830063543 20 0.0 0.0 0.00 0.69 0.00 88 1039.8
20260830063021 20 0.0 0.0 0.00 0.69 0.00 88 1039.6
20260830062558 20 0.0 0.0 0.00 0.69 0.00 88 1039.6
20260830062034 20 0.0 0.0 0.00 0.69 0.00 88 1039.8
20260830061532 20 0.0 0.0 0.00 0.69 0.00 88 1039.9
20260830061029 20 0.0 0.0 0.00 0.69 0.00 88 1039.9
20260830060526 20 0.0 0.0 0.00 0.69 0.00 89 1040.0
20260830060023 20 0.0 0.0 0.00 0.69 0.00 88 1039.9
20260830055520 20 0.0 0.0 0.00 0.69 0.00 88 1040.1
20260830055037 20 0.0 0.0 0.00 0.69 0.00 88 1040.1
20260830054534 20 0.0 0.0 0.00 0.69 0.00 88 1040.1
20260830054031 20 0.0 0.0 0.00 0.69 0.00 88 1040.1
20260830053527 20 0.0 0.0 0.00 0.69 0.00 88 1040.1
20260830053044 20 0.0 0.0 0.00 0.69 0.00 87 1040.2
20260830052541 20 0.0 0.0 0.00 0.69 0.00 87 1040.3
20260830052038 20 0.0 0.0 0.00 0.69 0.00 87 1040.2
20260830051535 20 0.0 0.0 0.00 0.69 0.00 87 1040.2
20260830051033 20 0.0 0.0 0.00 0.69 0.00 87 1040.2
20260830050529 20 132 0.0 3.2 0.00 0.69 0.00 87 1040.3
20260830050026 20 112 1.6 4.8 0.00 0.69 0.69 87 1040.2
20260830045523 20 0.0 0.0 0.00 0.69 0.69 87 1040.3
20260830045020 20 0.0 0.0 0.00 0.69 0.69 87 1040.3
20260830044538 20 0.0 0.0 0.00 0.69 0.69 86 1040.4
20260830044035 20 0.0 0.0 0.00 0.69 0.69 86 1040.4
20260830043532 20 0.0 0.0 0.00 0.69 0.69 86 1040.5
20260830043029 20 0.0 0.0 0.00 0.69 0.69 86 1040.5
20260830042525 20 0.0 0.0 0.00 0.69 0.69 86 1040.5
20260830042022 20 0.0 0.0 0.00 0.69 0.69 86 1040.4
20260830041539 20 0.0 0.0 0.00 0.69 0.69 86 1040.6
20260830041016 20 0.0 0.0 0.00 0.69 0.69 85 1040.4
20260830040533 20 0.0 0.0 0.00 0.69 0.69 85 1040.5
20260830040030 20 0.0 0.0 0.00 0.69 0.69 85 1040.5
20260830035526 20 0.0 0.0 0.00 0.69 0.69 85 1040.6
20260830035024 20 0.0 0.0 0.00 0.69 0.69 85 1040.6
20260830034541 20 0.0 0.0 0.00 0.69 0.69 85 1040.7
20260830034018 20 0.0 0.0 0.00 0.69 0.69 85 1040.8
20260830033535 20 0.0 0.0 0.00 0.69 0.69 85 1040.7
20260830033032 20 0.0 0.0 0.00 0.69 0.69 85 1040.7